Location: Johnson City
(36.3130°N, 82.3540°W)
Time: 07:34:57
(UTC-05:00)

N. Korean satellite - Pass Details

Date: 07 December 2021
Orbit: 447 x 490 km, 97.3° (Epoch: 26 January)

Event Time Altitude Azimuth Distance (km) Brightness Sun altitude
Rises 06:16:12 0° 358° (N) 2,453 9.9 -14.1°
Reaches altitude 10° 06:18:26 10° 345° (NNW) 1,576 8.8 -13.7°
Maximum altitude 06:21:18 26° 287° (WNW) 913 7.3 -13.1°
Drops below altitude 10° 06:24:09 10° 229° (SW) 1,571 8.9 -12.6°
Sets 06:26:23 0° 216° (SW) 2,442 10.0 -12.2°
